Regional Weather Roundup
Issued by NWS

Home | Current Version | Previous Version | Graphics & Text | Print | Product List | Glossary On
Versions: 1 2 3 4 5 6 7 8 9 10 11 12 13 14 15 16 17 18 19 20 21 22 23 24 25 26 27 28 29 30 31 32 33 34 35 36 37 38 39 40 41 42 43 44 45 46 47 48 49 50
000
ASUS43 KLSX 271259
RWRMO

WEATHER SUMMARY FOR MISSOURI
NATIONAL WEATHER SERVICE SPRINGFIELD MO
700 AM CST THU NOV 27 2014

NOTE: "FAIR" INDICATES FEW OR NO CLOUDS BELOW 12,000 FEET WITH NO
       SIGNIFICANT WEATHER AND/OR OBSTRUCTIONS TO VISIBILITY.
       CURRENT SKY AND/OR WEATHER CONDITIONS ARE NOT AVAILABLE FOR
       CHILLICOTHE AND FARMINGTON.

MOZ001>031-035>038-043-044-053-054-271400-
...NORTHERN AND WESTERN MISSOURI...

CITY           SKY/WX    TMP DP  RH WIND       PRES   REMARKS
KANSAS CTY INT CLOUDY    24  19  81 N9        30.50R WCI  14
KANSAS C DTWN  CLOUDY    27  19  72 N9        30.51R WCI  18
LEE`S SUMMIT   CLOUDY    26  20  77 N9        30.48S WCI  17
ST JOSEPH      CLOUDY    23  17  78 N6        30.53R WCI  16
CHILLICOTHE      N/A     25  19  78 NW7       30.51R WCI  17
KIRKSVILLE     CLOUDY    23  18  81 N12       30.47R WCI  12

$$
MOZ066>068-077>081-088>096-101>105-271400-
...SOUTHWEST MISSOURI...

CITY           SKY/WX    TMP DP  RH WIND       PRES   REMARKS
SPRINGFIELD    CLOUDY    30  23  75 N7        30.46R WCI  23
JOPLIN         CLEAR     23  20  88 CALM      30.49R

$$
MOZ032>034-039>042-045>050-055>058-069>072-271400-
...CENTRAL MISSOURI...

CITY           SKY/WX    TMP DP  RH WIND       PRES   REMARKS
COLUMBIA       CLOUDY    28  25  88 NW15      30.46R WCI  16
JEFFERSON CITY CLOUDY    30  25  81 NW10      30.48R WCI  21
ROLLA          CLOUDY    30  25  81 NW10      30.42R WCI  21
SEDALIA        CLOUDY    28  23  81 NW10      30.50R WCI  19
OSAGE BEACH    CLOUDY    30  23  74 NW6       30.47R WCI  24

$$
MOZ051-052-059>065-271400-
...EAST CENTRAL MISSOURI...

CITY           SKY/WX    TMP DP  RH WIND       PRES   REMARKS
ST LOUIS INTL  CLOUDY    31  25  78 NW13      30.42R WCI  21
SPIRIT OF STL  CLOUDY    30  25  81 NW16G22   30.43R WCI  19
ST CHARLES     CLOUDY    30  25  81 NW14      30.43R WCI  19

$$
MOZ072>076-082>087-097>100-106>115-271400-
...SOUTH CENTRAL AND SOUTHEAST MISSOURI...

CITY           SKY/WX    TMP DP  RH WIND       PRES   REMARKS
CAPE GIRARDEAU CLOUDY    33  28  81 N14       30.41R WCI  23
FARMINGTON     CLOUDY    30  27  86 N7        30.41R WCI  23
POPLAR BLUFF   CLOUDY    36  28  73 NW8       30.41R WCI  30
WEST PLAINS    CLOUDY    32  25  75 NW10      30.44R WCI  24

$$


USA.gov is the U.S. government's official web portal to all federal, state and local government web resources and services.